Location: Buisson
(44.2787°N, 4.9969°E)
Time: 03:23:19
(UTC+00:00)

Resurs 1-4 Rocket - Pass Details

Date: 18 April 2021
Orbit: 799 x 815 km, 98.6° (Epoch: 15 May)

Event Time Altitude Azimuth Distance (km) Brightness Sun altitude
Rises 02:08:18 0° 6° (N) 3,326 6.1 -25.4°
Reaches altitude 10° 02:10:48 10° 358° (N) 2,389 5.1 -25.1°
Maximum altitude 02:15:33 35° 294° (WNW) 1,266 2.9 -24.5°
Enters shadow 02:15:36 35° 292° (WNW) 1,266 2.9 -24.5°
